LX0APE-4 Weather Reports


time (UTC)temp
C
wind
direction
speed
KPH
gust
KPH
rain 1hr
cm
rain 24hr
cm
rain mn
cm
humidity
%
barometer
mb
20260507085647 11 337 0.0 0.0 0.00 0.05 0.00 73 5011.9
20260507085152 11 0 0.0 0.0 0.00 0.05 0.00 73 5011.7
20260507085148 11 0 0.0 0.0 0.00 0.05 0.00 73 5011.7
20260507084647 11 22 0.0 0.0 0.00 0.05 0.00 73 5011.8
20260507084147 11 0 0.0 0.0 0.00 0.05 0.00 72 5011.6
20260507083648 11 0 0.0 0.0 0.00 0.05 0.00 71 5011.8
20260507083148 11 0 0.0 0.0 0.00 0.05 0.00 71 5011.7
20260507082648 11 337 0.0 0.0 0.00 0.05 0.00 71 5011.7
20260507082148 11 315 0.0 0.0 0.00 0.05 0.00 73 5011.6
20260507081648 11 22 0.0 0.0 0.00 0.05 0.00 74 5011.6
20260507081148 11 0 0.0 0.0 0.00 0.05 0.00 75 5011.6
20260507080648 10 0 0.0 0.0 0.00 0.05 0.00 75 5011.6
20260507080148 10 0 0.0 0.0 0.00 0.05 0.00 75 5011.6
20260507075648 10 0 0.0 0.0 0.00 0.05 0.00 75 5011.6
20260507075148 11 0 0.0 0.0 0.00 0.05 0.00 74 5011.6
20260507074648 11 0 0.0 0.0 0.00 0.05 0.00 74 5011.4
20260507074148 11 0 0.0 0.0 0.00 0.05 0.00 74 5011.4
20260507073648 11 0 0.0 0.0 0.00 0.05 0.00 74 5011.3
20260507073148 11 0 0.0 0.0 0.00 0.05 0.00 75 5011.3
20260507072648 11 337 0.0 0.0 0.00 0.05 0.00 76 5011.2
20260507072148 11 0 0.0 0.0 0.00 0.05 0.00 76 5011.2
20260507071648 11 0 0.0 0.0 0.00 0.05 0.00 76 5010.9
20260507071148 10 315 0.0 0.0 0.00 0.05 0.00 77 5011.0
20260507070656 10 0 0.0 0.0 0.00 0.05 0.00 77 5011.0
20260507070648 10 0 0.0 0.0 0.00 0.05 0.00 77 5011.0
20260507070148 10 337 0.0 0.0 0.00 0.05 0.00 77 5010.9
20260507065648 10 337 0.0 0.0 0.00 0.05 0.00 78 5010.9
20260507065148 10 0 0.0 0.0 0.00 0.05 0.00 78 5010.9
20260507064648 10 337 0.0 0.0 0.00 0.05 0.00 79 5010.9
20260507064148 10 315 0.0 0.0 0.00 0.05 0.00 79 5010.8
20260507063648 10 337 0.0 0.0 0.00 0.05 0.00 79 5010.7
20260507063148 10 337 0.0 0.0 0.00 0.05 0.00 80 5010.7
20260507062648 10 315 0.0 0.0 0.00 0.05 0.00 81 5010.7
20260507062148 10 337 0.0 0.0 0.00 0.05 0.00 82 5010.6
20260507061648 10 315 0.0 0.0 0.00 0.05 0.00 82 5010.6
20260507061148 10 315 0.0 0.0 0.00 0.05 0.00 83 5010.6
20260507060648 9 292 0.0 0.0 0.00 0.05 0.00 83 5010.6
20260507060148 9 292 0.0 0.0 0.00 0.05 0.00 84 5010.6
20260507055648 9 292 0.0 0.0 0.00 0.05 0.00 84 5010.5
20260507055148 8 292 0.0 0.0 0.00 0.05 0.00 84 5010.5
20260507054648 8 292 0.0 0.0 0.00 0.05 0.00 84 5010.4
20260507054148 8 292 0.0 0.0 0.00 0.05 0.00 84 5010.4
20260507053648 8 292 0.0 0.0 0.00 0.05 0.00 84 5010.4
20260507053148 8 292 0.0 0.0 0.00 0.05 0.00 84 5010.2
20260507052648 8 292 0.0 0.0 0.00 0.05 0.00 84 5010.3
20260507052148 8 292 0.0 0.0 0.00 0.05 0.00 84 5010.2
20260507051648 8 270 0.0 0.0 0.00 0.05 0.00 84 5010.4
20260507051148 8 270 0.0 0.0 0.00 0.05 0.00 84 5010.3
20260507050648 8 292 0.0 0.0 0.00 0.05 0.00 84 5010.2
20260507050148 8 315 0.0 0.0 0.00 0.10 0.00 84 5010.0
20260507045648 8 292 0.0 0.0 0.00 0.10 0.00 84 5010.0
20260507045148 8 292 0.0 0.0 0.00 0.10 0.00 84 5009.9
20260507044648 8 315 0.0 0.0 0.00 0.10 0.00 84 5009.8
20260507044148 8 315 0.0 0.0 0.00 0.10 0.00 84 5009.8
20260507043648 8 315 0.0 0.0 0.00 0.10 0.00 84 5009.7
20260507043148 8 315 0.0 0.0 0.00 0.10 0.00 84 5009.8
20260507042648 8 315 0.0 0.0 0.00 0.10 0.00 84 5009.6
20260507042148 8 315 0.0 0.0 0.00 0.10 0.00 84 5009.6
20260507041648 8 315 0.0 0.0 0.00 0.10 0.00 84 5009.5
20260507041148 8 315 0.0 0.0 0.00 0.10 0.00 84 5009.5
20260507040648 8 315 0.0 0.0 0.00 0.10 0.00 84 5009.5
20260507040148 8 315 0.0 0.0 0.00 0.10 0.00 84 5009.3
20260507035648 8 315 0.0 0.0 0.00 0.10 0.00 84 5009.4
20260507035148 8 315 0.0 0.0 0.00 0.10 0.00 84 5009.4
20260507034648 8 315 0.0 0.0 0.00 0.10 0.00 84 5009.4
20260507034148 8 315 0.0 0.0 0.00 0.10 0.00 84 5009.4
20260507033648 8 315 0.0 0.0 0.00 0.10 0.00 84 5009.3
20260507033148 8 315 0.0 0.0 0.00 0.10 0.00 84 5009.2
20260507032648 8 315 0.0 0.0 0.00 0.10 0.00 84 5009.2
20260507032148 8 315 0.0 0.0 0.00 0.10 0.00 84 5009.1
20260507031648 8 315 0.0 0.0 0.00 0.10 0.00 84 5009.0
20260507031148 8 315 0.0 0.0 0.00 0.10 0.00 84 5009.1
20260507030648 8 315 0.0 0.0 0.00 0.10 0.00 83 5009.1
20260507030148 8 315 0.0 0.0 0.00 0.10 0.00 84 5009.1
20260507025648 8 315 0.0 0.0 0.00 0.10 0.00 84 5008.9
20260507025148 8 315 0.0 0.0 0.00 0.10 0.00 83 5009.0
20260507024648 8 315 0.0 0.0 0.00 0.10 0.00 83 5009.0
20260507024148 8 315 0.0 0.0 0.00 0.10 0.00 83 5008.9
20260507023648 8 315 0.0 0.0 0.00 0.10 0.00 83 5009.2
20260507023148 8 315 0.0 0.0 0.00 0.10 0.00 83 5009.2
20260507022648 8 315 0.0 0.0 0.00 0.10 0.00 83 5009.1
20260507022156 8 315 0.0 0.0 0.00 0.10 0.00 83 5009.0
20260507022148 8 315 0.0 0.0 0.00 0.10 0.00 83 5009.0
20260507021648 8 337 0.0 0.0 0.00 0.10 0.00 83 5009.0
20260507021148 8 315 0.0 0.0 0.00 0.10 0.00 82 5008.9
20260507020648 8 315 0.0 0.0 0.00 0.10 0.00 82 5008.9
20260507020148 8 315 0.0 0.0 0.00 0.10 0.00 82 5008.9
20260507015648 8 315 0.0 0.0 0.00 0.10 0.00 82 5008.9
20260507015152 8 315 0.0 0.0 0.00 0.10 0.00 82 5008.8
20260507015148 8 315 0.0 0.0 0.00 0.10 0.00 82 5008.8
20260507014648 8 315 0.0 0.0 0.00 0.10 0.00 82 5008.7
20260507014148 8 292 0.0 0.0 0.00 0.10 0.00 82 5008.7
20260507013648 8 337 0.0 0.0 0.00 0.10 0.00 82 5008.7
20260507013148 8 315 0.0 0.0 0.00 0.10 0.00 82 5008.7
20260507012648 8 292 0.0 0.0 0.00 0.10 0.00 82 5008.7
20260507012155 8 315 0.0 0.0 0.00 0.10 0.00 82 5008.6
20260507012148 8 315 0.0 0.0 0.00 0.10 0.00 82 5008.6
20260507011648 8 337 0.0 0.0 0.00 0.10 0.00 82 5008.6
20260507011148 8 315 0.0 0.0 0.00 0.10 0.00 81 5008.8
20260507010648 8 315 0.0 0.0 0.00 0.10 0.00 81 5008.8
20260507010148 8 292 0.0 0.0 0.00 0.10 0.00 81 5008.7
20260507005648 8 315 0.0 0.0 0.00 0.10 0.00 81 5008.7
20260507005152 8 315 0.0 0.0 0.00 0.10 0.00 81 5008.6
20260507005148 8 315 0.0 0.0 0.00 0.10 0.00 81 5008.6
20260507004648 8 315 0.0 0.0 0.00 0.10 0.00 81 5008.6
20260507004148 8 292 0.0 0.0 0.00 0.10 0.00 81 5008.7
20260507003653 8 315 0.0 0.0 0.00 0.10 0.00 81 5008.6
20260507003648 8 315 0.0 0.0 0.00 0.10 0.00 81 5008.6
20260507003148 8 292 0.0 0.0 0.00 0.10 0.00 81 5008.5
20260507002648 8 315 0.0 0.0 0.00 0.10 0.00 81 5008.4
20260507002148 8 315 0.0 0.0 0.00 0.10 0.00 81 5008.4
20260507001648 8 315 0.0 0.0 0.00 0.10 0.00 81 5008.5
20260507001148 8 292 0.0 0.0 0.00 0.10 0.00 81 5008.4
20260507000648 8 337 0.0 0.0 0.00 0.10 0.00 81 5008.3
20260507000148 8 292 0.0 0.0 0.00 0.10 0.00 81 5008.2
20260506235648 8 315 0.0 0.0 0.00 0.10 0.00 81 5008.2
20260506235148 8 337 0.0 0.0 0.00 0.10 0.00 81 5008.4
20260506234648 8 315 0.0 0.0 0.00 0.10 0.00 81 5008.2
20260506234148 8 315 0.0 0.0 0.00 0.10 0.00 81 5008.3
20260506233654 8 315 0.0 0.0 0.00 0.10 0.00 81 5008.2
20260506233648 8 315 0.0 0.0 0.00 0.10 0.00 81 5008.2
20260506233148 8 315 0.0 0.0 0.00 0.10 0.00 81 5008.1
20260506232648 8 337 0.0 0.0 0.00 0.10 0.00 81 5008.2
20260506232148 8 315 0.0 0.0 0.00 0.10 0.00 81 5008.3
20260506231648 8 315 0.0 0.0 0.00 0.10 0.00 81 5008.3
20260506231148 8 315 0.0 0.0 0.00 0.10 0.00 81 5008.2
20260506230648 8 337 0.0 0.0 0.00 0.10 0.00 80 5008.3
20260506230148 8 337 0.0 0.0 0.00 0.10 0.00 80 5008.2
20260506225648 8 337 0.0 0.0 0.00 0.10 0.00 80 5008.3
20260506225153 8 315 0.0 0.0 0.00 0.10 0.00 80 5008.2
20260506225149 8 315 0.0 0.0 0.00 0.10 0.00 80 5008.2
20260506224648 8 337 0.0 0.0 0.00 0.10 0.00 79 5008.1
20260506224148 9 337 0.0 0.0 0.00 0.10 0.00 79 5008.1
20260506223649 9 337 0.0 0.0 0.00 0.10 0.00 79 5008.1
20260506223149 9 337 0.0 0.0 0.00 0.10 0.00 79 5008.1
20260506222649 9 337 0.0 0.0 0.00 0.10 0.00 79 5008.1
20260506222149 9 337 0.0 0.0 0.00 0.10 0.00 79 5008.0
20260506221649 9 0 0.0 0.0 0.00 0.10 0.00 79 5007.9
20260506221149 9 337 0.0 0.0 0.00 0.10 0.00 79 5007.8
20260506220649 9 337 0.0 0.0 0.00 0.10 0.00 79 5007.7
20260506220149 9 337 0.0 0.0 0.00 0.10 0.00 78 5007.8
20260506215649 9 337 0.0 0.0 0.00 0.10 0.00 78 5007.7
20260506215149 9 315 0.0 0.0 0.00 0.10 0.00 78 5007.7
20260506214649 9 315 0.0 0.0 0.00 0.10 0.00 78 5007.5
20260506214149 9 315 0.0 0.0 0.00 0.10 0.00 78 5007.5
20260506213649 9 337 0.0 0.0 0.00 0.10 0.00 78 5007.5
20260506213149 9 337 0.0 0.0 0.00 0.10 0.00 78 5007.6
20260506212649 9 337 0.0 0.0 0.00 0.10 0.00 78 5007.6
20260506212149 9 337 0.0 0.0 0.00 0.10 0.00 78 5007.4
20260506211649 9 337 0.0 0.0 0.00 0.10 0.00 78 5007.2
20260506211149 9 315 0.0 0.0 0.00 0.10 0.00 77 5007.3
20260506210649 9 315 0.0 0.0 0.00 0.10 0.00 77 5007.3
20260506210149 9 315 0.0 0.0 0.00 0.10 0.00 77 5007.3
20260506205649 9 337 0.0 0.0 0.00 0.10 0.00 77 5007.2
20260506205149 9 292 0.0 0.0 0.00 0.10 0.00 77 5007.2
20260506204649 10 337 0.0 0.0 0.00 0.10 0.00 76 5007.1
20260506204149 10 337 0.0 0.0 0.00 0.10 0.00 76 5007.1
20260506203649 10 337 0.0 0.0 0.00 0.10 0.00 76 5007.1
20260506203149 10 337 0.0 0.0 0.00 0.10 0.00 76 5007.1
20260506202649 10 0 0.0 0.0 0.00 0.10 0.00 76 5007.0
20260506202149 10 337 0.0 0.0 0.00 0.10 0.00 76 5007.0
20260506201649 10 0 0.0 0.0 0.00 0.10 0.00 76 5006.9
20260506201149 10 315 0.0 0.0 0.00 0.10 0.00 77 5007.0
20260506200659 10 337 0.0 0.0 0.00 0.10 0.00 77 5006.9
20260506200649 10 337 0.0 0.0 0.00 0.10 0.00 77 5006.9
20260506200149 10 337 0.0 0.0 0.00 0.10 0.00 77 5006.8
20260506195649 10 337 0.0 0.0 0.00 0.10 0.00 77 5006.7
20260506195154 10 337 0.0 0.0 0.00 0.10 0.00 78 5006.7
20260506195149 10 337 0.0 0.0 0.00 0.10 0.00 78 5006.7
20260506194649 10 337 0.0 0.0 0.00 0.10 0.00 78 5006.6
20260506194149 10 0 0.0 0.0 0.00 0.10 0.00 77 5006.6
20260506193649 10 0 0.0 0.0 0.00 0.10 0.00 77 5006.7
20260506193149 10 337 0.0 0.0 0.00 0.10 0.00 76 5006.6
20260506192649 10 337 0.0 0.0 0.00 0.10 0.00 76 5006.5
20260506192149 10 337 0.0 0.0 0.00 0.10 0.00 75 5006.5
20260506191649 10 337 0.0 0.0 0.00 0.10 0.00 75 5006.3
20260506191149 10 337 0.0 0.0 0.00 0.10 0.00 75 5006.2
20260506190654 10 315 0.0 0.0 0.00 0.10 0.00 75 5006.2
20260506190649 10 315 0.0 0.0 0.00 0.10 0.00 75 5006.2
20260506190149 10 315 0.0 0.0 0.00 0.10 0.00 75 5006.1
20260506185649 11 315 0.0 0.0 0.00 0.20 0.00 75 5006.0
20260506185153 11 337 0.0 0.0 0.00 0.20 0.00 75 5005.9
20260506185149 11 337 0.0 0.0 0.00 0.20 0.00 75 5005.9
20260506184649 11 315 0.0 0.0 0.00 0.20 0.00 75 5005.9
20260506184149 11 315 0.0 0.0 0.00 0.20 0.00 75 5005.8
20260506183654 11 337 0.0 0.0 0.00 0.20 0.00 75 5005.7
20260506183649 11 337 0.0 0.0 0.00 0.20 0.00 75 5005.7
20260506183149 11 337 0.0 0.0 0.00 0.20 0.00 75 5005.7
20260506182649 11 0 0.0 0.0 0.00 0.20 0.00 74 5005.9
20260506182153 11 0 0.0 0.0 0.00 0.20 0.00 74 5005.6
20260506182149 11 0 0.0 0.0 0.00 0.20 0.00 74 5005.6
20260506181649 11 337 0.0 0.0 0.00 0.20 0.00 73 5005.5
20260506181149 11 337 0.0 0.0 0.00 0.20 0.00 73 5005.4
20260506180654 11 337 0.0 0.0 0.00 0.20 0.00 72 5005.3
20260506180649 11 337 0.0 0.0 0.00 0.20 0.00 72 5005.3
20260506180149 11 337 0.0 0.0 0.00 0.20 0.00 71 5005.3
20260506175649 11 0 0.0 0.0 0.00 0.36 0.00 71 5005.2
20260506175149 12 337 0.0 0.0 0.00 0.36 0.00 71 5005.1
20260506174649 12 337 0.0 0.0 0.00 0.36 0.00 71 5005.1
20260506174149 12 337 0.0 0.0 0.00 0.36 0.00 72 5005.1
20260506173649 12 0 0.0 0.0 0.00 0.36 0.00 72 5005.1
20260506173149 12 337 0.0 0.0 0.00 0.36 0.00 72 5005.1
20260506172649 12 0 0.0 0.0 0.00 0.36 0.00 71 5005.0
20260506172149 12 0 0.0 0.0 0.00 0.36 0.00 69 5005.0
20260506171649 13 337 0.0 0.0 0.00 0.36 0.00 69 5004.9
20260506171149 13 0 0.0 0.0 0.00 0.36 0.00 68 5004.9
20260506170649 13 315 0.0 0.0 0.00 0.36 0.00 68 5004.9
20260506170149 13 337 0.0 0.0 0.00 0.36 0.00 69 5004.9
20260506165649 13 0 0.0 0.0 0.00 0.36 0.00 71 5004.9
20260506165154 13 337 0.0 0.0 0.00 0.36 0.00 72 5004.8
20260506165149 13 337 0.0 0.0 0.00 0.36 0.00 72 5004.8
20260506164649 12 0 0.0 0.0 0.00 0.36 0.00 72 5004.8
20260506164149 12 0 0.0 0.0 0.00 0.36 0.00 73 5004.7
20260506163649 12 337 0.0 0.0 0.00 0.36 0.00 74 5004.7
20260506163149 12 0 0.0 0.0 0.00 0.36 0.00 74 5004.7
20260506162649 12 337 0.0 0.0 0.00 0.36 0.00 74 5004.8
20260506162149 12 337 0.0 0.0 0.00 0.36 0.00 75 5004.8
20260506161649 12 0 0.0 0.0 0.00 0.36 0.00 75 5004.8
20260506161149 12 0 0.0 0.0 0.00 0.36 0.00 76 5004.9
20260506160649 11 0 0.0 0.0 0.00 0.36 0.00 76 5004.9
20260506160149 11 0 0.0 0.0 0.00 0.36 0.00 76 5004.9
20260506155649 11 337 0.0 0.0 0.00 0.36 0.00 76 5004.9
20260506155154 12 315 0.0 0.0 0.00 0.36 0.00 75 5004.8
20260506155149 12 315 0.0 0.0 0.00 0.36 0.00 75 5004.8
20260506154649 12 22 0.0 0.0 0.00 0.36 0.00 75 5004.9
20260506154149 12 0 0.0 0.0 0.00 0.36 0.00 75 5004.8
20260506153649 12 337 0.0 0.0 0.00 0.36 0.00 74 5004.9
20260506153149 12 0 0.0 0.0 0.00 0.36 0.00 75 5004.9
20260506152649 12 0 0.0 0.0 0.00 0.36 0.00 75 5004.8
20260506152149 12 0 0.0 0.0 0.00 0.36 0.00 75 5004.8
20260506151649 12 337 0.0 0.0 0.00 0.36 0.00 75 5004.7
20260506151149 12 337 0.0 0.0 0.00 0.36 0.00 76 5004.6
20260506150654 12 315 0.0 0.0 0.00 0.36 0.00 77 5004.6
20260506150649 12 315 0.0 0.0 0.00 0.36 0.00 77 5004.6
20260506150149 12 337 0.0 0.0 0.00 0.36 0.00 76 5004.5
20260506145649 12 337 0.0 0.0 0.00 0.36 0.00 75 5004.5
20260506145149 12 337 0.0 0.0 0.00 0.36 0.00 75 5004.5
20260506144649 12 315 0.0 0.0 0.00 0.36 0.00 76 5004.5
20260506144149 12 337 0.0 0.0 0.00 0.36 0.00 77 5004.5
20260506143649 12 337 0.0 0.0 0.00 0.36 0.00 77 5004.4
20260506143149 12 337 0.0 0.0 0.00 0.36 0.00 77 5004.4
20260506142649 12 315 0.0 0.0 0.00 0.36 0.00 76 5004.3
20260506142149 12 337 0.0 0.0 0.00 0.36 0.00 76 5004.3
20260506141649 12 225 0.0 0.0 0.00 0.36 0.00 76 5004.3
20260506141149 12 292 0.0 0.0 0.00 0.36 0.00 75 5004.3
20260506140649 12 22 0.0 0.0 0.00 0.36 0.00 75 5004.2
20260506140149 12 337 0.0 0.0 0.00 0.36 0.00 73 5004.2
20260506135649 13 337 0.0 0.0 0.00 0.41 0.00 74 5004.0
20260506135149 13 337 0.0 0.0 0.00 0.41 0.00 74 5004.0
20260506134649 13 337 0.0 0.0 0.00 0.41 0.00 74 5004.0
20260506134149 13 337 0.0 0.0 0.00 0.41 0.00 75 5004.1
20260506133649 13 337 0.0 0.0 0.00 0.41 0.00 74 5004.1
20260506133149 13 337 0.0 0.0 0.00 0.41 0.00 74 5004.2
20260506132649 13 337 0.0 0.0 0.00 0.41 0.00 74 5004.2
20260506132149 13 315 0.0 0.0 0.00 0.41 0.00 75 5004.3
20260506131649 13 315 0.0 0.0 0.00 0.41 0.00 74 5004.2
20260506131149 13 45 0.0 0.0 0.00 0.41 0.00 74 5004.2
20260506130649 13 337 0.0 0.0 0.00 0.41 0.00 73 5004.1
20260506130149 13 337 0.0 0.0 0.00 0.41 0.00 74 5004.1
20260506125649 13 292 0.0 0.0 0.00 0.46 0.00 74 5004.1
20260506125149 13 315 0.0 0.0 0.00 0.46 0.00 73 5003.9
20260506124650 13 315 0.0 0.0 0.00 0.46 0.00 73 5003.9
20260506124150 13 337 0.0 0.0 0.00 0.46 0.00 73 5003.9
20260506123650 14 315 0.0 0.0 0.00 0.46 0.00 72 5003.9
20260506123150 14 337 0.0 0.0 0.00 0.46 0.00 73 5003.9
20260506122650 14 22 0.0 0.0 0.00 0.46 0.00 73 5003.8
20260506122150 14 315 0.0 0.0 0.00 0.46 0.00 73 5003.8
20260506121650 14 67 0.0 0.0 0.00 0.46 0.00 74 5003.8
20260506121150 14 315 0.0 0.0 0.00 0.46 0.00 74 5003.7
20260506120653 14 22 0.0 0.0 0.00 0.46 0.00 75 5003.5
20260506120650 14 22 0.0 0.0 0.00 0.46 0.00 75 5003.5
20260506120150 14 292 0.0 0.0 0.00 0.46 0.00 76 5003.6
20260506115650 13 315 0.0 0.0 0.00 0.51 0.00 77 5003.6
20260506115150 13 315 0.0 0.0 0.00 0.51 0.00 78 5003.6
20260506114650 13 315 0.0 0.0 0.00 0.51 0.00 78 5003.7
20260506114150 12 292 0.0 0.0 0.00 0.51 0.00 79 5003.8
20260506113650 12 315 0.0 0.0 0.00 0.51 0.00 79 5003.7
20260506113150 13 22 0.0 0.0 0.00 0.51 0.00 79 5003.7
20260506112650 13 292 0.0 0.0 0.00 0.51 0.00 79 5003.7
20260506112150 13 337 0.0 0.0 0.00 0.51 0.00 79 5003.5
20260506111650 13 315 0.0 0.0 0.00 0.51 0.00 79 5003.4
20260506111150 13 315 0.0 0.0 0.00 0.51 0.00 79 5003.4
20260506110650 13 22 0.0 0.0 0.00 0.51 0.00 78 5003.3
20260506110150 13 0 0.0 0.0 0.00 0.51 0.00 79 5003.3
20260506105650 13 337 0.0 0.0 0.00 0.56 0.00 79 5003.3
20260506105150 14 337 0.0 0.0 0.00 0.56 0.00 78 5003.3
20260506104650 14 337 0.0 0.0 0.00 0.56 0.00 77 5003.4
20260506104150 15 315 0.0 0.0 0.00 0.56 0.00 78 5003.4
20260506103650 15 270 0.0 0.0 0.00 0.56 0.00 80 5003.2
20260506103150 14 292 0.0 0.0 0.00 0.56 0.00 79 5003.0
20260506102650 14 315 0.0 0.0 0.00 0.56 0.00 79 5003.0
20260506102150 14 315 0.0 0.0 0.00 0.56 0.00 79 5003.1
20260506101650 15 315 0.0 0.0 0.00 0.56 0.00 79 5003.0
20260506101150 15 315 0.0 0.0 0.00 0.56 0.00 80 5003.0
20260506100650 15 337 0.0 0.0 0.05 0.56 0.00 81 5002.8
20260506100150 14 315 0.0 0.0 0.05 0.56 0.00 83 5003.0
20260506095650 13 292 0.0 0.0 0.05 0.56 0.00 84 5002.9
20260506095150 13 315 0.0 0.0 0.05 0.56 0.00 86 5002.9
20260506094650 13 315 0.0 0.0 0.05 0.56 0.00 88 5002.8
20260506094152 12 292 0.0 0.0 0.05 0.56 0.00 88 5002.8
20260506093650 12 315 0.0 0.0 0.05 0.56 0.00 89 5002.9
20260506093150 12 315 0.0 0.0 0.05 0.56 0.00 89 5002.8
20260506092650 12 315 0.0 0.0 0.05 0.56 0.00 88 5002.8
20260506092150 12 315 0.0 0.0 0.05 0.56 0.00 87 5002.9
20260506091650 12 292 0.0 0.0 0.05 0.56 0.00 86 5002.9
20260506091150 12 292 0.0 0.0 0.00 0.51 0.00 85 5002.9
20260506090650 12 292 0.0 0.0 0.00 0.51 0.00 85 5002.7
20260506090150 13 292 0.0 0.0 0.00 0.51 0.00 83 5002.8